Time,TemperatureF,DewpointF,PressureIn,WindDirection,WindDirectionDegrees,WindSpeedMPH,WindSpeedGustMPH,Humidity,HourlyPrecipIn,Conditions,Clouds,dailyrainin,SoftwareType,DateUTC
2013-03-05 00:00:00,41.6,26.6,29.96,East,87,0.0,0.0,55,0.00,,,0.00,Wunderground v.1.15,2013-03-05 05:00:00,
2013-03-05 00:01:00,41.7,26.7,29.96,East,87,0.0,0.0,55,0.00,,,0.00,Wunderground v.1.15,2013-03-05 05:01:00,
2013-03-05 00:03:00,41.8,26.8,29.96,East,87,0.0,1.0,55,0.00,,,0.00,Wunderground v.1.15,2013-03-05 05:03:00,
2013-03-05 00:04:00,41.8,26.8,29.96,SE,140,0.0,6.0,55,0.00,,,0.00,Wunderground v.1.15,2013-03-05 05:04:00,
2013-03-05 00:09:00,41.8,27.2,29.96,SE,137,1.0,6.0,56,0.00,,,0.00,Wunderground v.1.15,2013-03-05 05:09:00,
2013-03-05 00:14:00,41.7,27.1,29.95,SE,135,3.0,7.0,56,0.00,,,0.00,Wunderground v.1.15,2013-03-05 05:14:00,
2013-03-05 00:20:00,41.8,26.8,29.95,SE,133,4.0,4.0,55,0.00,,,0.00,Wunderground v.1.15,2013-03-05 05:20:00,
2013-03-05 00:25:00,42.4,26.9,29.95,SE,132,5.0,7.0,54,0.00,,,0.00,Wunderground v.1.15,2013-03-05 05:25:00,
2013-03-05 00:30:00,42.5,27.0,29.95,SE,132,3.0,3.0,54,0.00,,,0.00,Wunderground v.1.15,2013-03-05 05:30:00,
2013-03-05 00:35:00,42.2,27.2,29.95,SE,132,0.0,3.0,55,0.00,,,0.00,Wunderground v.1.15,2013-03-05 05:35:00,
2013-03-05 00:40:00,41.1,27.4,29.95,ESE,117,1.0,5.0,58,0.00,,,0.00,Wunderground v.1.15,2013-03-05 05:40:00,
2013-03-05 00:46:00,39.6,27.6,29.95,ESE,116,3.0,9.0,62,0.00,,,0.00,Wunderground v.1.15,2013-03-05 05:46:00,
2013-03-05 00:52:00,39.1,27.6,29.95,ESE,121,6.0,12.0,63,0.00,,,0.00,Wunderground v.1.15,2013-03-05 05:52:00,
2013-03-05 00:57:00,40.0,27.2,29.95,ESE,115,10.0,14.0,60,0.00,,,0.00,Wunderground v.1.15,2013-03-05 05:57:00,
2013-03-05 01:02:00,41.4,27.7,29.95,ESE,123,12.0,17.0,58,0.00,,,0.00,Wunderground v.1.15,2013-03-05 06:02:00,
2013-03-05 01:07:00,41.7,27.6,29.95,ESE,121,12.0,17.0,57,0.00,,,0.00,Wunderground v.1.15,2013-03-05 06:07:00,
2013-03-05 01:12:00,41.3,27.6,29.94,SE,126,12.0,12.0,58,0.00,,,0.00,Wunderground v.1.15,2013-03-05 06:12:00,
2013-03-05 01:17:00,40.9,27.2,29.94,SE,124,12.0,14.0,58,0.00,,,0.00,Wunderground v.1.15,2013-03-05 06:17:00,
2013-03-05 01:23:00,41.8,27.7,29.94,SE,130,14.0,20.0,57,0.00,,,0.00,Wunderground v.1.15,2013-03-05 06:23:00,
2013-03-05 01:28:00,42.7,28.1,29.94,East,88,16.0,24.0,56,0.00,,,0.00,Wunderground v.1.15,2013-03-05 06:28:00,
2013-03-05 01:33:00,43.5,27.9,29.94,ESE,120,17.0,22.0,54,0.00,,,0.00,Wunderground v.1.15,2013-03-05 06:33:00,
2013-03-05 01:38:00,43.7,28.1,29.94,SE,134,17.0,22.0,54,0.00,,,0.00,Wunderground v.1.15,2013-03-05 06:38:00,
2013-03-05 01:43:00,43.7,28.1,29.93,SE,126,16.0,19.0,54,0.00,,,0.00,Wunderground v.1.15,2013-03-05 06:43:00,
2013-03-05 01:48:00,43.4,27.8,29.93,SE,130,15.0,22.0,54,0.00,,,0.00,Wunderground v.1.15,2013-03-05 06:48:00,
2013-03-05 01:54:00,43.3,27.8,29.93,ESE,119,16.0,19.0,54,0.00,,,0.00,Wunderground v.1.15,2013-03-05 06:54:00,
2013-03-05 01:59:00,43.5,27.9,29.92,SE,126,16.0,22.0,54,0.00,,,0.00,Wunderground v.1.15,2013-03-05 06:59:00,
2013-03-05 02:04:00,43.7,28.1,29.92,SE,126,16.0,18.0,54,0.00,,,0.00,Wunderground v.1.15,2013-03-05 07:04:00,
2013-03-05 02:09:00,44.0,28.0,29.92,SE,144,16.0,20.0,53,0.00,,,0.00,Wunderground v.1.15,2013-03-05 07:09:00,
2013-03-05 02:15:00,44.2,28.1,29.92,ESE,113,16.0,20.0,53,0.00,,,0.00,Wunderground v.1.15,2013-03-05 07:15:00,
2013-03-05 02:20:00,44.1,28.0,29.92,ESE,118,14.0,14.0,53,0.00,,,0.00,Wunderground v.1.15,2013-03-05 07:20:00,
2013-03-05 02:25:00,44.1,28.0,29.92,ESE,121,12.0,14.0,53,0.00,,,0.00,Wunderground v.1.15,2013-03-05 07:25:00,
2013-03-05 02:30:00,44.0,28.4,29.92,SE,134,8.0,8.0,54,0.00,,,0.00,Wunderground v.1.15,2013-03-05 07:30:00,
2013-03-05 02:35:00,43.4,28.3,29.92,SE,134,3.0,8.0,55,0.00,,,0.00,Wunderground v.1.15,2013-03-05 07:35:00,
2013-03-05 02:40:00,42.7,28.1,29.92,SE,134,0.0,0.0,56,0.00,,,0.00,Wunderground v.1.15,2013-03-05 07:40:00,
2013-03-05 02:45:00,42.0,27.9,29.90,SE,134,0.0,2.0,57,0.00,,,0.00,Wunderground v.1.15,2013-03-05 07:45:00,
2013-03-05 02:50:00,41.3,28.0,29.90,SE,134,0.0,0.0,59,0.00,,,0.00,Wunderground v.1.15,2013-03-05 07:50:00,
2013-03-05 02:55:00,41.0,27.8,29.90,SE,136,3.0,7.0,59,0.00,,,0.00,Wunderground v.1.15,2013-03-05 07:55:00,
2013-03-05 03:00:00,40.8,28.0,29.90,SE,136,3.0,3.0,60,0.00,,,0.00,Wunderground v.1.15,2013-03-05 08:00:00,
2013-03-05 03:06:00,41.0,28.2,29.90,SE,136,1.0,4.0,60,0.00,,,0.00,Wunderground v.1.15,2013-03-05 08:06:00,
2013-03-05 03:11:00,41.0,28.2,29.90,SE,136,0.0,1.0,60,0.00,,,0.00,Wunderground v.1.15,2013-03-05 08:11:00,
2013-03-05 03:16:00,40.8,28.4,29.89,SE,136,0.0,2.0,61,0.00,,,0.00,Wunderground v.1.15,2013-03-05 08:16:00,
2013-03-05 03:21:00,40.4,28.4,29.89,SE,136,1.0,4.0,62,0.00,,,0.00,Wunderground v.1.15,2013-03-05 08:21:00,
2013-03-05 03:26:00,40.1,28.5,29.89,SE,136,3.0,6.0,63,0.00,,,0.00,Wunderground v.1.15,2013-03-05 08:26:00,
2013-03-05 03:31:00,40.0,28.4,29.88,SE,136,5.0,7.0,63,0.00,,,0.00,Wunderground v.1.15,2013-03-05 08:31:00,
2013-03-05 03:36:00,40.1,28.5,29.88,SE,142,6.0,10.0,63,0.00,,,0.00,Wunderground v.1.15,2013-03-05 08:36:00,
2013-03-05 03:42:00,40.3,28.7,29.88,SE,136,7.0,8.0,63,0.00,,,0.00,Wunderground v.1.15,2013-03-05 08:42:00,
2013-03-05 03:47:00,40.7,28.7,29.88,SE,130,8.0,11.0,62,0.00,,,0.00,Wunderground v.1.15,2013-03-05 08:47:00,
2013-03-05 03:52:00,41.8,29.3,29.88,SSE,155,10.0,12.0,61,0.00,,,0.00,Wunderground v.1.15,2013-03-05 08:52:00,
2013-03-05 03:58:00,42.9,29.5,29.86,SE,126,11.0,15.0,59,0.00,,,0.00,Wunderground v.1.15,2013-03-05 08:58:00,
2013-03-05 04:03:00,42.5,29.6,29.86,ESE,121,10.0,11.0,60,0.00,,,0.00,Wunderground v.1.15,2013-03-05 09:03:00,
2013-03-05 04:08:00,41.9,29.0,29.86,SE,130,7.0,11.0,60,0.00,,,0.00,Wunderground v.1.15,2013-03-05 09:08:00,
2013-03-05 04:14:00,41.6,29.5,29.86,SE,132,6.0,9.0,62,0.00,,,0.00,Wunderground v.1.15,2013-03-05 09:14:00,
2013-03-05 04:19:00,41.7,29.6,29.86,ESE,121,7.0,9.0,62,0.00,,,0.00,Wunderground v.1.15,2013-03-05 09:19:00,
2013-03-05 04:24:00,41.9,29.8,29.86,SE,131,8.0,10.0,62,0.00,,,0.00,Wunderground v.1.15,2013-03-05 09:24:00,
2013-03-05 04:29:00,42.5,30.0,29.86,SE,129,9.0,14.0,61,0.00,,,0.00,Wunderground v.1.15,2013-03-05 09:29:00,
2013-03-05 04:34:00,42.7,29.8,29.86,SE,128,9.0,9.0,60,0.00,,,0.00,Wunderground v.1.15,2013-03-05 09:34:00,
2013-03-05 04:40:00,42.7,30.2,29.86,SE,124,7.0,8.0,61,0.00,,,0.00,Wunderground v.1.15,2013-03-05 09:40:00,
2013-03-05 04:46:00,42.5,30.0,29.86,ESE,122,7.0,13.0,61,0.00,,,0.00,Wunderground v.1.15,2013-03-05 09:46:00,
2013-03-05 04:51:00,42.2,29.7,29.86,ESE,120,9.0,9.0,61,0.00,,,0.00,Wunderground v.1.15,2013-03-05 09:51:00,
2013-03-05 04:56:00,42.4,30.3,29.86,SE,138,10.0,14.0,62,0.00,,,0.00,Wunderground v.1.15,2013-03-05 09:56:00,
2013-03-05 05:01:00,42.7,30.2,29.86,ESE,113,11.0,11.0,61,0.00,,,0.00,Wunderground v.1.15,2013-03-05 10:01:00,
2013-03-05 05:06:00,43.0,30.5,29.86,ESE,115,11.0,13.0,61,0.00,,,0.00,Wunderground v.1.15,2013-03-05 10:06:00,
2013-03-05 05:11:00,43.1,31.0,29.86,SE,134,12.0,12.0,62,0.00,,,0.00,Wunderground v.1.15,2013-03-05 10:11:00,
2013-03-05 05:17:00,42.4,31.1,29.86,SE,131,11.0,17.0,64,0.00,,,0.00,Wunderground v.1.15,2013-03-05 10:17:00,
2013-03-05 05:22:00,41.9,31.0,29.86,SE,128,10.0,10.0,65,0.00,,,0.00,Wunderground v.1.15,2013-03-05 10:22:00,
2013-03-05 05:27:00,41.5,31.4,29.86,SE,124,8.0,10.0,67,0.00,,,0.00,Wunderground v.1.15,2013-03-05 10:27:00,
2013-03-05 05:32:00,41.2,31.1,29.86,ESE,118,6.0,7.0,67,0.00,,,0.00,Wunderground v.1.15,2013-03-05 10:32:00,
2013-03-05 05:37:00,41.0,31.2,29.86,ESE,113,5.0,9.0,68,0.00,,,0.00,Wunderground v.1.15,2013-03-05 10:37:00,
2013-03-05 05:42:00,40.9,31.1,29.85,ESE,113,7.0,8.0,68,0.00,,,0.00,Wunderground v.1.15,2013-03-05 10:42:00,
2013-03-05 05:47:00,40.8,31.1,29.85,ESE,114,8.0,11.0,68,0.00,,,0.00,Wunderground v.1.15,2013-03-05 10:47:00,
2013-03-05 05:52:00,40.9,31.1,29.85,ESE,121,9.0,10.0,68,0.00,,,0.00,Wunderground v.1.15,2013-03-05 10:52:00,
2013-03-05 05:58:00,41.1,31.3,29.86,SE,126,9.0,13.0,68,0.00,,,0.00,Wunderground v.1.15,2013-03-05 10:58:00,
2013-03-05 06:03:00,41.2,31.8,29.86,SE,128,10.0,10.0,69,0.00,,,0.00,Wunderground v.1.15,2013-03-05 11:03:00,
2013-03-05 06:08:00,40.9,32.9,29.86,ESE,114,10.0,16.0,73,0.00,,,0.00,Wunderground v.1.15,2013-03-05 11:08:00,
2013-03-05 06:13:00,40.2,33.6,29.85,SE,132,10.0,11.0,77,0.00,,,0.00,Wunderground v.1.15,2013-03-05 11:13:00,
2013-03-05 06:18:00,39.9,33.9,29.85,SE,132,9.0,11.0,79,0.00,,,0.00,Wunderground v.1.15,2013-03-05 11:18:00,
2013-03-05 06:23:00,39.7,34.0,29.85,SE,132,7.0,8.0,80,0.00,,,0.01,Wunderground v.1.15,2013-03-05 11:23:00,
2013-03-05 06:28:00,39.7,34.3,29.85,SE,132,5.0,8.0,81,0.00,,,0.01,Wunderground v.1.15,2013-03-05 11:28:00,
2013-03-05 06:34:00,39.7,34.3,29.85,SE,131,5.0,5.0,81,0.00,,,0.01,Wunderground v.1.15,2013-03-05 11:34:00,
2013-03-05 06:39:00,39.5,34.2,29.85,SE,128,5.0,6.0,81,0.00,,,0.01,Wunderground v.1.15,2013-03-05 11:39:00,
2013-03-05 06:44:00,39.3,34.0,29.85,SE,132,5.0,10.0,81,0.00,,,0.01,Wunderground v.1.15,2013-03-05 11:44:00,
2013-03-05 06:49:00,39.1,34.1,29.85,SE,128,7.0,18.0,82,0.00,,,0.01,Wunderground v.1.15,2013-03-05 11:49:00,
2013-03-05 06:54:00,39.2,34.5,29.85,ESE,121,9.0,11.0,83,0.00,,,0.01,Wunderground v.1.15,2013-03-05 11:54:00,
2013-03-05 06:59:00,39.1,34.4,29.85,SE,135,9.0,11.0,83,0.00,,,0.01,Wunderground v.1.15,2013-03-05 11:59:00,
2013-03-05 07:04:00,39.0,34.3,29.85,ESE,117,9.0,10.0,83,0.00,,,0.01,Wunderground v.1.15,2013-03-05 12:04:00,
2013-03-05 07:10:00,39.1,34.7,29.85,SE,127,9.0,9.0,84,0.00,,,0.01,Wunderground v.1.15,2013-03-05 12:10:00,
2013-03-05 07:15:00,39.1,35.3,29.83,SE,128,8.0,9.0,86,0.00,,,0.01,Wunderground v.1.15,2013-03-05 12:15:00,
2013-03-05 07:20:00,39.0,35.2,29.83,SE,128,7.0,7.0,86,0.00,,,0.01,Wunderground v.1.15,2013-03-05 12:20:00,
2013-03-05 07:25:00,38.9,35.4,29.83,SE,131,6.0,9.0,87,0.00,,,0.01,Wunderground v.1.15,2013-03-05 12:25:00,
2013-03-05 07:30:00,39.1,35.6,29.84,SE,132,7.0,8.0,87,0.00,,,0.01,Wunderground v.1.15,2013-03-05 12:30:00,
2013-03-05 07:35:00,39.1,35.6,29.84,SE,133,8.0,9.0,87,0.00,,,0.01,Wunderground v.1.15,2013-03-05 12:35:00,
2013-03-05 07:40:00,39.2,35.9,29.84,SE,133,7.0,7.0,88,0.00,,,0.01,Wunderground v.1.15,2013-03-05 12:40:00,
2013-03-05 07:45:00,39.1,36.1,29.84,SE,133,6.0,8.0,89,0.00,,,0.02,Wunderground v.1.15,2013-03-05 12:45:00,
2013-03-05 07:50:00,38.7,36.3,29.84,SE,126,6.0,8.0,91,0.16,,,0.03,Wunderground v.1.15,2013-03-05 12:50:00,
2013-03-05 07:55:00,38.4,36.0,29.84,SE,126,7.0,10.0,91,0.11,,,0.04,Wunderground v.1.15,2013-03-05 12:55:00,
2013-03-05 08:01:00,38.1,36.3,29.83,SE,140,8.0,8.0,93,0.12,,,0.05,Wunderground v.1.15,2013-03-05 13:01:00,
2013-03-05 08:07:00,38.0,36.4,29.83,SE,138,7.0,8.0,94,0.06,,,0.05,Wunderground v.1.15,2013-03-05 13:07:00,
2013-03-05 08:12:00,38.0,36.4,29.84,SE,138,5.0,6.0,94,0.04,,,0.05,Wunderground v.1.15,2013-03-05 13:12:00,
2013-03-05 08:17:00,38.1,36.8,29.84,SE,134,3.0,10.0,95,0.04,,,0.06,Wunderground v.1.15,2013-03-05 13:17:00,
2013-03-05 08:22:00,38.3,37.0,29.84,SE,134,5.0,10.0,95,0.04,,,0.06,Wunderground v.1.15,2013-03-05 13:22:00,
2013-03-05 08:28:00,38.4,37.1,29.83,SE,142,8.0,10.0,95,0.04,,,0.06,Wunderground v.1.15,2013-03-05 13:28:00,
2013-03-05 08:33:00,38.4,37.1,29.83,SE,129,9.0,11.0,95,0.00,,,0.06,Wunderground v.1.15,2013-03-05 13:33:00,
2013-03-05 08:38:00,38.4,37.1,29.83,SE,129,8.0,11.0,95,0.00,,,0.06,Wunderground v.1.15,2013-03-05 13:38:00,
2013-03-05 08:43:00,38.3,37.0,29.83,ESE,123,8.0,10.0,95,0.00,,,0.06,Wunderground v.1.15,2013-03-05 13:43:00,
2013-03-05 08:49:00,38.2,36.9,29.83,ESE,113,8.0,15.0,95,0.00,,,0.06,Wunderground v.1.15,2013-03-05 13:49:00,
2013-03-05 08:54:00,38.2,37.2,29.83,ESE,115,7.0,17.0,96,0.00,,,0.06,Wunderground v.1.15,2013-03-05 13:54:00,
2013-03-05 09:00:00,38.4,37.4,29.82,ESE,112,8.0,11.0,96,0.00,,,0.06,Wunderground v.1.15,2013-03-05 14:00:00,
2013-03-05 09:05:00,38.7,37.7,29.82,SE,138,11.0,14.0,96,0.00,,,0.06,Wunderground v.1.15,2013-03-05 14:05:00,
2013-03-05 09:10:00,39.1,38.1,29.82,SE,124,13.0,13.0,96,0.00,,,0.06,Wunderground v.1.15,2013-03-05 14:10:00,
2013-03-05 09:16:00,39.7,38.7,29.82,ESE,112,13.0,20.0,96,0.00,,,0.06,Wunderground v.1.15,2013-03-05 14:16:00,
2013-03-05 09:21:00,40.1,39.1,29.82,ESE,122,13.0,16.0,96,0.00,,,0.06,Wunderground v.1.15,2013-03-05 14:21:00,
2013-03-05 09:26:00,40.3,39.3,29.82,East,101,11.0,16.0,96,0.00,,,0.06,Wunderground v.1.15,2013-03-05 14:26:00,
2013-03-05 09:31:00,40.5,39.4,29.81,ESE,119,12.0,12.0,96,0.00,,,0.06,Wunderground v.1.15,2013-03-05 14:31:00,
2013-03-05 09:37:00,40.7,39.6,29.81,East,98,11.0,12.0,96,0.00,,,0.06,Wunderground v.1.15,2013-03-05 14:37:00,
2013-03-05 09:42:00,40.9,39.8,29.81,SE,140,11.0,22.0,96,0.00,,,0.06,Wunderground v.1.15,2013-03-05 14:42:00,
2013-03-05 09:48:00,41.1,40.0,29.81,SE,128,11.0,22.0,96,0.00,,,0.06,Wunderground v.1.15,2013-03-05 14:48:00,
2013-03-05 09:53:00,41.3,40.5,29.81,SE,131,9.0,18.0,97,0.00,,,0.06,Wunderground v.1.15,2013-03-05 14:53:00,
2013-03-05 09:58:00,41.6,40.8,29.79,SE,124,11.0,19.0,97,0.00,,,0.06,Wunderground v.1.15,2013-03-05 14:58:00,
2013-03-05 10:04:00,41.8,41.0,29.79,SSE,158,14.0,26.0,97,0.00,,,0.06,Wunderground v.1.15,2013-03-05 15:04:00,
2013-03-05 10:09:00,42.2,41.4,29.79,ESE,109,17.0,26.0,97,0.00,,,0.06,Wunderground v.1.15,2013-03-05 15:09:00,
2013-03-05 10:14:00,42.4,41.6,29.79,SE,126,19.0,26.0,97,0.00,,,0.06,Wunderground v.1.15,2013-03-05 15:14:00,
2013-03-05 10:20:00,42.5,41.7,29.79,East,99,16.0,22.0,97,0.00,,,0.06,Wunderground v.1.15,2013-03-05 15:20:00,
2013-03-05 10:25:00,42.7,41.9,29.79,SE,131,14.0,28.0,97,0.00,,,0.06,Wunderground v.1.15,2013-03-05 15:25:00,
2013-03-05 10:30:00,42.8,42.0,29.79,SE,135,15.0,15.0,97,0.00,,,0.06,Wunderground v.1.15,2013-03-05 15:30:00,
2013-03-05 10:36:00,43.0,42.2,29.79,South,175,14.0,22.0,97,0.00,,,0.06,Wunderground v.1.15,2013-03-05 15:36:00,
2013-03-05 10:41:00,43.1,42.3,29.79,ESE,105,13.0,13.0,97,0.00,,,0.06,Wunderground v.1.15,2013-03-05 15:41:00,
2013-03-05 10:46:00,43.2,42.4,29.78,ESE,118,13.0,19.0,97,0.00,,,0.06,Wunderground v.1.15,2013-03-05 15:46:00,
2013-03-05 10:52:00,43.4,42.6,29.78,SE,124,14.0,22.0,97,0.00,,,0.06,Wunderground v.1.15,2013-03-05 15:52:00,
2013-03-05 10:57:00,43.6,42.8,29.77,ESE,115,13.0,22.0,97,0.00,,,0.06,Wunderground v.1.15,2013-03-05 15:57:00,
2013-03-05 11:02:00,43.8,43.0,29.77,SE,127,16.0,17.0,97,0.00,,,0.06,Wunderground v.1.15,2013-03-05 16:02:00,
2013-03-05 11:07:00,43.9,43.1,29.77,SE,126,17.0,25.0,97,0.00,,,0.06,Wunderground v.1.15,2013-03-05 16:07:00,
2013-03-05 11:13:00,44.1,43.3,29.76,ESE,117,16.0,17.0,97,0.00,,,0.06,Wunderground v.1.15,2013-03-05 16:13:00,
2013-03-05 11:18:00,44.1,43.3,29.76,ESE,123,13.0,23.0,97,0.00,,,0.06,Wunderground v.1.15,2013-03-05 16:18:00,
2013-03-05 11:23:00,44.1,43.3,29.76,SE,128,13.0,17.0,97,0.00,,,0.06,Wunderground v.1.15,2013-03-05 16:23:00,
2013-03-05 11:28:00,44.0,43.2,29.75,SE,142,14.0,17.0,97,0.00,,,0.06,Wunderground v.1.15,2013-03-05 16:28:00,
2013-03-05 11:33:00,44.1,43.3,29.75,SE,134,15.0,20.0,97,0.00,,,0.06,Wunderground v.1.15,2013-03-05 16:33:00,
2013-03-05 11:38:00,44.2,43.4,29.75,SE,128,15.0,20.0,97,0.00,,,0.06,Wunderground v.1.15,2013-03-05 16:38:00,
2013-03-05 11:43:00,44.4,43.6,29.74,ESE,113,13.0,14.0,97,0.00,,,0.07,Wunderground v.1.15,2013-03-05 16:43:00,
2013-03-05 11:48:00,44.6,43.8,29.74,ESE,108,11.0,14.0,97,0.00,,,0.07,Wunderground v.1.15,2013-03-05 16:48:00,
2013-03-05 11:54:00,44.7,43.9,29.74,ESE,119,12.0,18.0,97,0.00,,,0.07,Wunderground v.1.15,2013-03-05 16:54:00,
2013-03-05 11:59:00,45.1,44.3,29.73,ESE,119,10.0,18.0,97,0.00,,,0.07,Wunderground v.1.15,2013-03-05 16:59:00,
2013-03-05 12:04:00,45.4,44.6,29.73,ESE,123,7.0,15.0,97,0.00,,,0.07,Wunderground v.1.15,2013-03-05 17:04:00,
2013-03-05 12:09:00,45.5,45.0,29.73,SE,127,7.0,22.0,98,0.00,,,0.07,Wunderground v.1.15,2013-03-05 17:09:00,
2013-03-05 12:14:00,45.7,44.9,29.73,SE,130,10.0,18.0,97,0.00,,,0.07,Wunderground v.1.15,2013-03-05 17:14:00,
2013-03-05 12:19:00,46.0,45.2,29.73,SE,140,11.0,18.0,97,0.00,,,0.07,Wunderground v.1.15,2013-03-05 17:19:00,
2013-03-05 12:24:00,46.1,45.3,29.73,ESE,117,11.0,14.0,97,0.00,,,0.07,Wunderground v.1.15,2013-03-05 17:24:00,
2013-03-05 12:29:00,46.1,45.3,29.72,SE,134,10.0,14.0,97,0.00,,,0.07,Wunderground v.1.15,2013-03-05 17:29:00,
2013-03-05 12:35:00,46.3,45.5,29.72,ESE,111,9.0,18.0,97,0.00,,,0.07,Wunderground v.1.15,2013-03-05 17:35:00,
2013-03-05 12:40:00,46.4,45.6,29.72,SE,128,11.0,11.0,97,0.00,,,0.07,Wunderground v.1.15,2013-03-05 17:40:00,
2013-03-05 12:45:00,46.5,45.7,29.72,SE,132,12.0,18.0,97,0.00,,,0.07,Wunderground v.1.15,2013-03-05 17:45:00,
2013-03-05 12:51:00,46.7,45.9,29.72,SE,142,12.0,14.0,97,0.00,,,0.07,Wunderground v.1.15,2013-03-05 17:51:00,
2013-03-05 12:56:00,47.0,46.2,29.72,ESE,112,12.0,15.0,97,0.00,,,0.07,Wunderground v.1.15,2013-03-05 17:56:00,
2013-03-05 13:01:00,47.2,46.4,29.70,SE,137,12.0,24.0,97,0.00,,,0.07,Wunderground v.1.15,2013-03-05 18:01:00,
2013-03-05 13:07:00,47.2,46.4,29.70,SE,124,14.0,24.0,97,0.00,,,0.07,Wunderground v.1.15,2013-03-05 18:07:00,
2013-03-05 13:12:00,47.1,46.0,29.69,SE,132,16.0,25.0,96,0.00,,,0.07,Wunderground v.1.15,2013-03-05 18:12:00,
2013-03-05 13:17:00,47.0,45.9,29.69,ESE,118,19.0,26.0,96,0.00,,,0.07,Wunderground v.1.15,2013-03-05 18:17:00,
2013-03-05 13:22:00,47.1,46.3,29.69,SE,136,20.0,28.0,97,0.00,,,0.07,Wunderground v.1.15,2013-03-05 18:22:00,
2013-03-05 13:27:00,47.2,46.4,29.68,ESE,120,21.0,32.0,97,0.00,,,0.07,Wunderground v.1.15,2013-03-05 18:27:00,
2013-03-05 13:32:00,47.5,46.4,29.68,SE,140,21.0,25.0,96,0.00,,,0.07,Wunderground v.1.15,2013-03-05 18:32:00,
2013-03-05 13:37:00,47.8,46.7,29.68,SE,137,21.0,25.0,96,0.00,,,0.07,Wunderground v.1.15,2013-03-05 18:37:00,
2013-03-05 13:42:00,48.5,47.4,29.67,SE,126,23.0,29.0,96,0.00,,,0.07,Wunderground v.1.15,2013-03-05 18:42:00,
2013-03-05 13:47:00,48.4,47.0,29.67,SE,130,22.0,29.0,95,0.00,,,0.07,Wunderground v.1.15,2013-03-05 18:47:00,
2013-03-05 13:53:00,48.2,47.1,29.67,SE,132,21.0,22.0,96,0.00,,,0.07,Wunderground v.1.15,2013-03-05 18:53:00,
2013-03-05 13:58:00,48.2,47.1,29.66,SE,132,21.0,25.0,96,0.00,,,0.07,Wunderground v.1.15,2013-03-05 18:58:00,
2013-03-05 14:03:00,48.1,47.0,29.66,ESE,121,21.0,21.0,96,0.00,,,0.07,Wunderground v.1.15,2013-03-05 19:03:00,
2013-03-05 14:08:00,48.1,47.3,29.66,SE,138,20.0,27.0,97,0.00,,,0.07,Wunderground v.1.15,2013-03-05 19:08:00,
2013-03-05 14:13:00,48.5,47.7,29.66,SE,138,20.0,20.0,97,0.00,,,0.07,Wunderground v.1.15,2013-03-05 19:13:00,
2013-03-05 14:18:00,48.7,47.9,29.66,ESE,121,17.0,20.0,97,0.00,,,0.07,Wunderground v.1.15,2013-03-05 19:18:00,
2013-03-05 14:24:00,48.7,47.9,29.66,SE,126,17.0,30.0,97,0.00,,,0.07,Wunderground v.1.15,2013-03-05 19:24:00,
2013-03-05 14:29:00,49.0,47.9,29.63,SE,125,18.0,30.0,96,0.00,,,0.07,Wunderground v.1.15,2013-03-05 19:29:00,
2013-03-05 14:34:00,48.8,47.7,29.63,SE,138,18.0,28.0,96,0.00,,,0.07,Wunderground v.1.15,2013-03-05 19:34:00,
2013-03-05 14:40:00,48.6,47.5,29.63,SE,143,17.0,17.0,96,0.00,,,0.07,Wunderground v.1.15,2013-03-05 19:40:00,
2013-03-05 14:45:00,48.5,47.7,29.63,South,169,15.0,18.0,97,0.00,,,0.07,Wunderground v.1.15,2013-03-05 19:45:00,
2013-03-05 14:50:00,48.6,47.8,29.63,SE,132,16.0,16.0,97,0.00,,,0.08,Wunderground v.1.15,2013-03-05 19:50:00,
2013-03-05 14:55:00,48.7,47.9,29.63,SE,137,13.0,19.0,97,0.00,,,0.08,Wunderground v.1.15,2013-03-05 19:55:00,
2013-03-05 15:00:00,48.7,47.9,29.60,SSE,147,13.0,13.0,97,0.00,,,0.08,Wunderground v.1.15,2013-03-05 20:00:00,
2013-03-05 15:05:00,48.6,47.8,29.60,SE,146,13.0,18.0,97,0.00,,,0.08,Wunderground v.1.15,2013-03-05 20:05:00,
2013-03-05 15:10:00,48.7,47.9,29.60,SE,132,11.0,11.0,97,0.00,,,0.08,Wunderground v.1.15,2013-03-05 20:10:00,
2013-03-05 15:15:00,48.8,48.0,29.61,SE,134,12.0,15.0,97,0.00,,,0.08,Wunderground v.1.15,2013-03-05 20:15:00,
2013-03-05 15:21:00,49.0,48.2,29.61,SE,131,15.0,17.0,97,0.00,,,0.08,Wunderground v.1.15,2013-03-05 20:21:00,
2013-03-05 15:26:00,49.2,48.4,29.61,SE,139,17.0,23.0,97,0.00,,,0.08,Wunderground v.1.15,2013-03-05 20:26:00,
2013-03-05 15:31:00,49.3,48.2,29.60,SE,144,15.0,16.0,96,0.00,,,0.08,Wunderground v.1.15,2013-03-05 20:31:00,
2013-03-05 15:37:00,49.3,48.2,29.60,ESE,118,12.0,16.0,96,0.00,,,0.08,Wunderground v.1.15,2013-03-05 20:37:00,
2013-03-05 15:42:00,49.1,48.0,29.59,SSE,156,12.0,22.0,96,0.00,,,0.08,Wunderground v.1.15,2013-03-05 20:42:00,
2013-03-05 15:48:00,48.9,48.1,29.59,SE,124,15.0,22.0,97,0.00,,,0.09,Wunderground v.1.15,2013-03-05 20:48:00,
2013-03-05 15:53:00,48.8,48.0,29.59,SE,140,15.0,19.0,97,0.08,,,0.10,Wunderground v.1.15,2013-03-05 20:53:00,
2013-03-05 15:58:00,48.6,47.8,29.56,SSE,150,16.0,22.0,97,0.15,,,0.11,Wunderground v.1.15,2013-03-05 20:58:00,
2013-03-05 16:03:00,48.6,47.8,29.56,SE,136,17.0,17.0,97,0.17,,,0.13,Wunderground v.1.15,2013-03-05 21:03:00,
2013-03-05 16:08:00,48.5,47.7,29.56,SSE,167,16.0,28.0,97,0.10,,,0.14,Wunderground v.1.15,2013-03-05 21:08:00,
2013-03-05 16:13:00,48.3,47.5,29.55,ESE,103,20.0,26.0,97,0.09,,,0.15,Wunderground v.1.15,2013-03-05 21:13:00,
2013-03-05 16:19:00,48.2,47.4,29.55,ESE,123,20.0,26.0,97,0.38,,,0.18,Wunderground v.1.15,2013-03-05 21:19:00,
2013-03-05 16:24:00,48.4,47.6,29.55,SSE,165,19.0,24.0,97,0.39,,,0.21,Wunderground v.1.15,2013-03-05 21:24:00,
2013-03-05 16:29:00,48.5,47.7,29.53,SE,143,20.0,24.0,97,0.29,,,0.23,Wunderground v.1.15,2013-03-05 21:29:00,
2013-03-05 16:34:00,48.8,48.0,29.53,SSE,148,21.0,28.0,97,0.30,,,0.25,Wunderground v.1.15,2013-03-05 21:34:00,
2013-03-05 16:39:00,49.1,48.3,29.53,SE,142,19.0,28.0,97,0.15,,,0.26,Wunderground v.1.15,2013-03-05 21:39:00,
2013-03-05 16:45:00,49.2,48.1,29.52,SSE,153,16.0,24.0,96,0.51,,,0.30,Wunderground v.1.15,2013-03-05 21:45:00,
2013-03-05 16:50:00,49.2,48.4,29.52,ESE,118,12.0,14.0,97,0.34,,,0.35,Wunderground v.1.15,2013-03-05 21:50:00,
2013-03-05 16:55:00,49.1,48.3,29.52,SE,130,13.0,21.0,97,0.30,,,0.38,Wunderground v.1.15,2013-03-05 21:55:00,
2013-03-05 17:00:00,49.1,48.3,29.53,SE,140,15.0,15.0,97,0.55,,,0.41,Wunderground v.1.15,2013-03-05 22:00:00,
2013-03-05 17:06:00,49.2,48.4,29.53,ESE,119,15.0,18.0,97,0.42,,,0.45,Wunderground v.1.15,2013-03-05 22:06:00,
2013-03-05 17:11:00,49.1,48.3,29.53,SE,127,12.0,13.0,97,0.29,,,0.48,Wunderground v.1.15,2013-03-05 22:11:00,
2013-03-05 17:16:00,48.9,48.1,29.55,SE,128,10.0,15.0,97,0.72,,,0.55,Wunderground v.1.15,2013-03-05 22:16:00,
2013-03-05 17:21:00,48.8,48.0,29.55,SE,126,8.0,9.0,97,0.28,,,0.58,Wunderground v.1.15,2013-03-05 22:21:00,
2013-03-05 17:26:00,48.8,48.0,29.55,ESE,120,5.0,13.0,97,0.19,,,0.61,Wunderground v.1.15,2013-03-05 22:26:00,
2013-03-05 17:32:00,48.7,48.2,29.55,ESE,105,5.0,11.0,98,0.19,,,0.62,Wunderground v.1.15,2013-03-05 22:32:00,
2013-03-05 17:37:00,48.5,47.7,29.55,SSE,167,7.0,20.0,97,0.14,,,0.63,Wunderground v.1.15,2013-03-05 22:37:00,
2013-03-05 17:42:00,48.3,47.8,29.56,SE,141,11.0,20.0,98,0.10,,,0.64,Wunderground v.1.15,2013-03-05 22:42:00,
2013-03-05 17:48:00,48.3,47.8,29.56,ESE,122,17.0,28.0,98,0.11,,,0.65,Wunderground v.1.15,2013-03-05 22:48:00,
2013-03-05 17:53:00,48.6,48.1,29.56,SE,128,12.0,16.0,98,0.09,,,0.66,Wunderground v.1.15,2013-03-05 22:53:00,
2013-03-05 17:59:00,48.6,48.1,29.53,ESE,122,4.0,16.0,98,0.08,,,0.66,Wunderground v.1.15,2013-03-05 22:59:00,
2013-03-05 18:04:00,48.4,47.9,29.53,ESE,120,4.0,10.0,98,0.05,,,0.66,Wunderground v.1.15,2013-03-05 23:04:00,
2013-03-05 18:09:00,48.3,47.8,29.53,ESE,121,3.0,10.0,98,0.00,,,0.66,Wunderground v.1.15,2013-03-05 23:09:00,
2013-03-05 18:15:00,48.7,48.2,29.55,SSE,166,6.0,20.0,98,0.00,,,0.66,Wunderground v.1.15,2013-03-05 23:15:00,
2013-03-05 18:21:00,49.4,47.5,29.55,South,174,6.0,7.0,93,0.00,,,0.66,Wunderground v.1.15,2013-03-05 23:21:00,
2013-03-05 18:26:00,49.2,47.0,29.55,South,172,2.0,7.0,92,0.00,,,0.66,Wunderground v.1.15,2013-03-05 23:26:00,
2013-03-05 18:31:00,50.1,46.4,29.54,SSE,160,4.0,4.0,87,0.00,,,0.66,Wunderground v.1.15,2013-03-05 23:31:00,
2013-03-05 18:36:00,49.6,46.2,29.54,South,173,7.0,16.0,88,0.00,,,0.66,Wunderground v.1.15,2013-03-05 23:36:00,
2013-03-05 18:41:00,49.4,44.8,29.54,SSW,193,9.0,9.0,84,0.00,,,0.66,Wunderground v.1.15,2013-03-05 23:41:00,
2013-03-05 18:47:00,49.4,44.5,29.55,WNW,292,9.0,25.0,83,0.00,,,0.66,Wunderground v.1.15,2013-03-05 23:47:00,
2013-03-05 18:52:00,49.7,43.1,29.55,SSE,153,9.0,13.0,78,0.00,,,0.66,Wunderground v.1.15,2013-03-05 23:52:00,
2013-03-05 18:57:00,49.9,42.6,29.55,NW,310,11.0,16.0,76,0.00,,,0.66,Wunderground v.1.15,2013-03-05 23:57:00,
2013-03-05 19:03:00,50.0,42.4,29.55,South,173,11.0,17.0,75,0.00,,,0.66,Wunderground v.1.15,2013-03-06 00:03:00,
2013-03-05 19:08:00,50.0,42.4,29.55,WSW,238,9.0,17.0,75,0.00,,,0.66,Wunderground v.1.15,2013-03-06 00:08:00,
2013-03-05 19:13:00,49.8,42.5,29.56,SE,138,5.0,10.0,76,0.00,,,0.66,Wunderground v.1.15,2013-03-06 00:13:00,
2013-03-05 19:19:00,49.7,43.1,29.56,SE,126,4.0,10.0,78,0.00,,,0.66,Wunderground v.1.15,2013-03-06 00:19:00,
2013-03-05 19:24:00,49.5,43.6,29.56,NNE,21,6.0,17.0,80,0.00,,,0.66,Wunderground v.1.15,2013-03-06 00:24:00,
2013-03-05 19:29:00,48.6,42.7,29.57,South,184,11.0,19.0,80,0.00,,,0.67,Wunderground v.1.15,2013-03-06 00:29:00,
2013-03-05 19:34:00,48.0,43.1,29.57,NW,304,9.0,10.0,83,0.00,,,0.67,Wunderground v.1.15,2013-03-06 00:34:00,
2013-03-05 19:39:00,47.3,42.4,29.57,SSE,155,5.0,30.0,83,0.00,,,0.67,Wunderground v.1.15,2013-03-06 00:39:00,
2013-03-05 19:45:00,47.4,42.2,29.57,ESE,103,10.0,18.0,82,0.00,,,0.67,Wunderground v.1.15,2013-03-06 00:45:00,
2013-03-05 19:51:00,47.3,40.8,29.57,South,180,9.0,22.0,78,0.00,,,0.67,Wunderground v.1.15,2013-03-06 00:51:00,
2013-03-05 19:56:00,47.2,40.4,29.57,SE,124,11.0,22.0,77,0.00,,,0.67,Wunderground v.1.15,2013-03-06 00:56:00,
2013-03-05 20:02:00,47.2,39.0,29.58,West,281,10.0,10.0,73,0.00,,,0.67,Wunderground v.1.15,2013-03-06 01:02:00,
2013-03-05 20:07:00,46.9,38.7,29.58,ESE,105,10.0,22.0,73,0.00,,,0.67,Wunderground v.1.15,2013-03-06 01:07:00,
2013-03-05 20:12:00,46.7,38.5,29.58,SE,146,11.0,26.0,73,0.00,,,0.67,Wunderground v.1.15,2013-03-06 01:12:00,
2013-03-05 20:18:00,46.1,37.9,29.58,ENE,71,10.0,26.0,73,0.00,,,0.67,Wunderground v.1.15,2013-03-06 01:18:00,
2013-03-05 20:24:00,45.8,37.3,29.58,NNW,334,8.0,10.0,72,0.00,,,0.67,Wunderground v.1.15,2013-03-06 01:24:00,
2013-03-05 20:29:00,45.5,36.6,29.57,ESE,115,10.0,21.0,71,0.00,,,0.67,Wunderground v.1.15,2013-03-06 01:29:00,
2013-03-05 20:34:00,45.0,36.9,29.57,SE,134,10.0,20.0,73,0.00,,,0.67,Wunderground v.1.15,2013-03-06 01:34:00,
2013-03-05 20:39:00,44.2,37.1,29.57,SSE,154,11.0,22.0,76,0.00,,,0.67,Wunderground v.1.15,2013-03-06 01:39:00,
2013-03-05 20:44:00,43.6,37.5,29.59,SSE,159,10.0,20.0,79,0.00,,,0.67,Wunderground v.1.15,2013-03-06 01:44:00,
2013-03-05 20:49:00,42.9,36.8,29.59,ESE,119,9.0,27.0,79,0.00,,,0.67,Wunderground v.1.15,2013-03-06 01:49:00,
2013-03-05 20:55:00,42.3,37.5,29.59,ESE,117,7.0,18.0,83,0.00,,,0.67,Wunderground v.1.15,2013-03-06 01:55:00,
2013-03-05 21:00:00,41.4,37.2,29.58,SE,130,5.0,12.0,85,0.00,,,0.67,Wunderground v.1.15,2013-03-06 02:00:00,
2013-03-05 21:05:00,40.8,37.2,29.58,ENE,76,6.0,12.0,87,0.00,,,0.67,Wunderground v.1.15,2013-03-06 02:05:00,
2013-03-05 21:10:00,40.5,36.0,29.58,NNE,15,6.0,6.0,84,0.00,,,0.67,Wunderground v.1.15,2013-03-06 02:10:00,
2013-03-05 21:15:00,40.7,35.3,29.59,SE,129,9.0,21.0,81,0.00,,,0.67,Wunderground v.1.15,2013-03-06 02:15:00,
2013-03-05 21:20:00,40.7,34.4,29.59,SE,146,8.0,8.0,78,0.00,,,0.67,Wunderground v.1.15,2013-03-06 02:20:00,
2013-03-05 21:26:00,40.6,35.2,29.59,WNW,296,5.0,9.0,81,0.00,,,0.67,Wunderground v.1.15,2013-03-06 02:26:00,
2013-03-05 21:31:00,40.1,35.7,29.59,NW,305,11.0,21.0,84,0.00,,,0.67,Wunderground v.1.15,2013-03-06 02:31:00,
2013-03-05 21:36:00,39.3,35.8,29.59,WNW,300,15.0,24.0,87,0.00,,,0.67,Wunderground v.1.15,2013-03-06 02:36:00,
2013-03-05 21:41:00,38.5,35.5,29.59,NNE,17,12.0,13.0,89,0.00,,,0.68,Wunderground v.1.15,2013-03-06 02:41:00,
2013-03-05 21:47:00,37.6,34.9,29.61,WNW,282,8.0,20.0,90,0.00,,,0.68,Wunderground v.1.15,2013-03-06 02:47:00,
2013-03-05 21:52:00,37.3,34.6,29.61,NNW,327,7.0,8.0,90,0.05,,,0.69,Wunderground v.1.15,2013-03-06 02:52:00,
2013-03-05 21:57:00,36.9,34.2,29.61,WNW,294,7.0,16.0,90,0.05,,,0.69,Wunderground v.1.15,2013-03-06 02:57:00,
2013-03-05 22:02:00,36.6,33.7,29.61,NNE,28,8.0,12.0,89,0.05,,,0.69,Wunderground v.1.15,2013-03-06 03:02:00,
2013-03-05 22:07:00,36.2,33.3,29.61,NE,50,8.0,12.0,89,0.00,,,0.69,Wunderground v.1.15,2013-03-06 03:07:00,
2013-03-05 22:12:00,35.6,33.2,29.62,NE,47,7.0,16.0,91,0.00,,,0.69,Wunderground v.1.15,2013-03-06 03:12:00,
2013-03-05 22:18:00,35.0,32.4,29.62,ENE,72,5.0,16.0,90,0.00,,,0.69,Wunderground v.1.15,2013-03-06 03:18:00,
2013-03-05 22:23:00,34.7,32.3,29.62,South,188,3.0,6.0,91,0.00,,,0.69,Wunderground v.1.15,2013-03-06 03:23:00,
2013-03-05 22:28:00,34.4,32.0,29.62,WNW,298,3.0,13.0,91,0.00,,,0.69,Wunderground v.1.15,2013-03-06 03:28:00,
2013-03-05 22:33:00,34.1,31.5,29.62,NNW,339,3.0,11.0,90,0.00,,,0.69,Wunderground v.1.15,2013-03-06 03:33:00,
2013-03-05 22:38:00,34.0,30.8,29.62,NNW,342,5.0,22.0,88,0.00,,,0.69,Wunderground v.1.15,2013-03-06 03:38:00,
2013-03-05 22:43:00,33.7,30.0,29.62,NE,51,7.0,10.0,86,0.00,,,0.69,Wunderground v.1.15,2013-03-06 03:43:00,
2013-03-05 22:49:00,33.9,29.6,29.62,SE,132,8.0,30.0,84,0.00,,,0.69,Wunderground v.1.15,2013-03-06 03:49:00,
2013-03-05 22:54:00,33.8,29.5,29.62,NNE,27,9.0,12.0,84,0.00,,,0.69,Wunderground v.1.15,2013-03-06 03:54:00,
2013-03-05 22:59:00,33.7,28.8,29.63,North,5,10.0,15.0,82,0.00,,,0.69,Wunderground v.1.15,2013-03-06 03:59:00,
2013-03-05 23:04:00,33.6,28.7,29.63,NNW,331,10.0,18.0,82,0.00,,,0.69,Wunderground v.1.15,2013-03-06 04:04:00,
2013-03-05 23:10:00,33.5,28.9,29.63,WNW,302,11.0,11.0,83,0.00,,,0.69,Wunderground v.1.15,2013-03-06 04:10:00,
2013-03-05 23:15:00,33.3,29.0,29.63,NW,326,13.0,16.0,84,0.00,,,0.69,Wunderground v.1.15,2013-03-06 04:15:00,
2013-03-05 23:20:00,33.0,29.3,29.63,NW,317,13.0,20.0,86,0.00,,,0.69,Wunderground v.1.15,2013-03-06 04:20:00,
2013-03-05 23:25:00,32.7,29.0,29.63,WNW,303,15.0,22.0,86,0.00,,,0.69,Wunderground v.1.15,2013-03-06 04:25:00,
2013-03-05 23:31:00,32.5,29.3,29.61,NW,306,19.0,19.0,88,0.00,,,0.69,Wunderground v.1.15,2013-03-06 04:31:00,
2013-03-05 23:36:00,32.4,29.2,29.61,NW,325,12.0,19.0,88,0.00,,,0.69,Wunderground v.1.15,2013-03-06 04:36:00,
2013-03-05 23:41:00,32.3,29.1,29.61,NW,324,3.0,12.0,88,0.00,,,0.69,Wunderground v.1.15,2013-03-06 04:41:00,
2013-03-05 23:46:00,32.2,29.0,29.61,NW,323,4.0,12.0,88,0.00,,,0.69,Wunderground v.1.15,2013-03-06 04:46:00,
2013-03-05 23:51:00,32.2,28.8,29.61,NW,323,6.0,7.0,87,0.00,,,0.69,Wunderground v.1.15,2013-03-06 04:51:00,
2013-03-05 23:57:00,32.2,28.5,29.62,NW,323,4.0,7.0,86,0.00,,,0.69,Wunderground v.1.15,2013-03-06 04:57:00,